Regional Weather Roundup
Issued by NWS

Home | Current Version | Previous Version | Graphics & Text | Print | Product List | Glossary On
Versions: 1 2 3 4 5 6 7 8 9 10 11 12 13 14 15 16 17 18 19 20 21 22 23 24 25 26 27 28 29 30 31 32 33 34 35 36 37 38 39 40 41 42 43 44 45 46 47 48 49 50
000
ASUS43 KLSX 311207
RWRMO

WEATHER SUMMARY FOR MISSOURI
NATIONAL WEATHER SERVICE SPRINGFIELD MO
700 AM CDT THU JUL 31 2014

NOTE: "FAIR" INDICATES FEW OR NO CLOUDS BELOW 12,000 FEET WITH NO
       SIGNIFICANT WEATHER AND/OR OBSTRUCTIONS TO VISIBILITY.
       CURRENT SKY AND/OR WEATHER CONDITIONS ARE NOT AVAILABLE FOR
       CHILLICOTHE AND FARMINGTON.

MOZ001>031-035>038-043-044-053-054-311300-
...NORTHERN AND WESTERN MISSOURI...

CITY           SKY/WX    TMP DP  RH WIND       PRES   REMARKS
KANSAS CTY INT PTCLDY    61  56  83 NE5       30.10S
6HR MIN TEMP:  59; 6HR MAX TEMP:  66;

KANSAS C DTWN  CLEAR     62  59  90 CALM      30.10S
6HR MIN TEMP:  62; 6HR MAX TEMP:  67;

LEE`S SUMMIT   PTCLDY    62  59  90 CALM      30.11R
6HR MIN TEMP:  60; 6HR MAX TEMP:  65;

ST JOSEPH      FOG       53  53 100 CALM      30.11S VSB 1/4
6HR MIN TEMP:  52; 6HR MAX TEMP:  59;

CHILLICOTHE      N/A     57  54  89 CALM      30.12S
6HR MIN TEMP:  56; 6HR MAX TEMP:  61;

KIRKSVILLE     CLEAR     55  54  96 W3        30.12R
6HR MIN TEMP:  53; 6HR MAX TEMP:  58;


$$
MOZ066>068-077>081-088>096-101>105-311300-
...SOUTHWEST MISSOURI...

CITY           SKY/WX    TMP DP  RH WIND       PRES   REMARKS
SPRINGFIELD    MOCLDY    66  64  93 N3        30.10S FOG
6HR MIN TEMP:  66; 6HR MAX TEMP:  68;

JOPLIN         PTCLDY    64  64 100 VRB3      30.10R FOG
6HR MIN TEMP:  64; 6HR MAX TEMP:  66;


$$
MOZ032>034-039>042-045>050-055>058-069>072-311300-
...CENTRAL MISSOURI...

CITY           SKY/WX    TMP DP  RH WIND       PRES   REMARKS
COLUMBIA       CLEAR     60  57  89 CALM      30.10R
6HR MIN TEMP:  59; 6HR MAX TEMP:  66;

JEFFERSON CITY CLEAR     59  58  96 CALM      30.09S
6HR MIN TEMP:  58; 6HR MAX TEMP:  65;

ROLLA          CLEAR     57  56  96 CALM      30.09S
6HR MIN TEMP:  56; 6HR MAX TEMP:  63;

SEDALIA        PTCLDY    60  57  89 CALM      30.11R
6HR MIN TEMP:  58; 6HR MAX TEMP:  66;

WHITEMAN AFB   CLEAR     57  53  86 CALM      30.08F
OSAGE BEACH    CLOUDY    55  54  94 CALM      30.10S VSB 1/2

$$
MOZ051-052-059>065-311300-
...EAST CENTRAL MISSOURI...

CITY           SKY/WX    TMP DP  RH WIND       PRES   REMARKS
ST LOUIS INTL  PTCLDY    67  61  81 CALM      30.09S
6HR MIN TEMP:  65; 6HR MAX TEMP:  73;

SPIRIT OF STL  PTCLDY    60  57  89 CALM      30.08R
6HR MIN TEMP:  57; 6HR MAX TEMP:  65;

ST CHARLES     PTCLDY    59  58  96 CALM      30.08S FOG
6HR MIN TEMP:  58; 6HR MAX TEMP:  65;


$$
MOZ072>076-082>087-097>100-106>115-311300-
...SOUTH CENTRAL AND SOUTHEAST MISSOURI...

CITY           SKY/WX    TMP DP  RH WIND       PRES   REMARKS
CAPE GIRARDEAU FOG       61  60  97 CALM      30.09R VSB 1/4
6HR MIN TEMP:  59; 6HR MAX TEMP:  64;

FARMINGTON     CLOUDY    57  55  94 CALM      30.12S VSB<1/4
6HR MIN TEMP:  55; 6HR MAX TEMP:  63;

POPLAR BLUFF   MOCLDY    67  63  87 CALM      30.08R FOG
6HR MIN TEMP:  64; 6HR MAX TEMP:  67;

WEST PLAINS    MOCLDY    65  63  93 CALM      30.11S FOG
6HR MIN TEMP:  64; 6HR MAX TEMP:  66; 6HR PCP: TRACE;


$$


USA.gov is the U.S. government's official web portal to all federal, state and local government web resources and services.